GW4455 Weather Reports


Display with metric or nautical units.
time (UTC)temp
F
wind
direction
speed
MPH
gust
MPH
rain 1hr
in
rain 24hr
in
rain mn
in
humidity
%
barometer
mb
20260505095522 38 298 5.0 8.0 0.00 0.00 0.03 88 1013.8
20260505094842 38 259 3.0 7.0 0.00 0.00 0.02 88 1013.8
20260505094202 38 312 5.0 7.0 0.00 0.00 0.02 86 1013.8
20260505093522 38 208 3.0 8.0 0.00 0.00 0.02 88 1013.8
20260505092842 38 211 3.0 9.0 0.00 0.00 0.02 88 1013.8
20260505091522 38 199 6.0 8.0 0.00 0.00 0.02 87 1013.8
20260505090842 38 191 4.0 8.0 0.00 0.00 0.02 87 1013.8
20260505090202 38 204 4.0 7.0 0.00 0.00 0.02 85 1013.8
20260505085522 39 203 3.0 5.0 0.00 0.00 0.02 83 1013.8
20260505084202 39 191 2.0 4.0 0.00 0.00 0.02 81 1013.8
20260505083522 39 258 1.0 4.0 0.00 0.00 0.02 82 1013.8
20260505081522 39 236 2.0 5.0 0.00 0.00 0.02 80 1013.8
20260505080841 39 225 1.0 2.0 0.00 0.00 0.02 79 1013.8
20260505075521 39 205 2.0 5.0 0.00 0.00 0.02 80 1013.8
20260505074201 39 126 1.0 4.0 0.00 0.00 0.02 82 1013.8
20260505072841 39 145 2.0 6.0 0.00 0.00 0.02 82 1013.8
20260505071521 38 122 3.0 8.0 0.00 0.00 0.02 85 1013.4
20260505070841 38 114 4.0 8.0 0.00 0.00 0.02 85 1013.4
20260505070201 38 102 5.0 8.0 0.00 0.00 0.02 84 1013.8
20260505065521 38 103 5.0 8.0 0.00 0.00 0.02 84 1013.8
20260505064201 39 106 3.0 9.0 0.00 0.00 0.02 84 1013.8
20260505063521 39 100 7.0 9.0 0.00 0.00 0.01 80 1013.8
20260505062841 39 95 6.0 8.0 0.00 0.00 0.00 81 1013.8
20260505061521 39 84 4.0 11.0 0.00 0.00 0.00 82 1013.8
20260505060841 40 102 7.0 11.0 0.00 0.00 0.00 80 1013.8
20260505060201 40 89 4.0 7.0 0.00 0.00 0.00 77 1013.8
20260505055521 40 73 4.0 6.0 0.00 0.00 0.00 77 1013.8
20260505054841 39 66 4.0 9.0 0.00 0.00 0.00 78 1014.2
20260505054201 39 48 6.0 9.0 0.00 0.00 0.00 78 1014.2
20260505053521 39 42 5.0 11.0 0.00 0.00 0.00 77 1014.2
20260505052841 40 39 6.0 13.0 0.00 0.00 0.00 76 1014.2
20260505052201 40 34 7.0 11.0 0.00 0.00 0.00 76 1014.2
20260505051521 40 48 5.0 13.0 0.00 0.00 0.00 75 1014.2
20260505050841 40 43 5.0 13.0 0.00 0.00 0.00 74 1013.8
20260505041521 44 60 6.0 11.0 0.00 0.00 0.00 54 1013.8
20260505040841 44 51 6.0 11.0 0.00 0.00 0.00 54 1013.8
20260505040201 44 62 7.0 13.0 0.00 0.00 0.00 53 1013.8
20260505035521 45 48 7.0 13.0 0.00 0.00 0.00 52 1013.8
20260505034841 45 58 6.0 14.0 0.00 0.00 0.00 50 1013.8
20260505034201 45 43 9.0 14.0 0.00 0.00 0.00 49 1013.4
20260505033521 45 42 5.0 11.0 0.00 0.00 0.00 50 1013.4
20260505032841 45 45 6.0 12.0 0.00 0.00 0.00 49 1013.4
20260505032201 45 45 6.0 16.0 0.00 0.00 0.00 49 1013.4
20260505031521 45 41 11.0 16.0 0.00 0.00 0.00 48 1013.0
20260505030841 45 41 7.0 16.0 0.00 0.00 0.00 49 1013.0
20260505025521 46 40 10.0 16.0 0.00 0.00 0.00 48 1012.6
20260505024201 46 41 6.0 17.0 0.00 0.00 0.00 47 1012.6
20260505023521 46 32 7.0 17.0 0.00 0.00 0.00 47 1012.6
20260505022841 46 38 6.0 15.0 0.00 0.00 0.00 47 1012.6
20260505022201 46 39 8.0 14.0 0.00 0.00 0.00 46 1012.2
20260505021521 47 46 6.0 19.0 0.00 0.00 0.00 46 1012.2
20260505020841 47 37 6.0 18.0 0.00 0.00 0.00 46 1011.8
20260505020201 47 36 9.0 18.0 0.00 0.00 0.00 46 1011.8
20260505015521 48 34 10.0 17.0 0.00 0.00 0.00 46 1011.8
20260505014841 48 41 10.0 17.0 0.00 0.00 0.00 45 1011.8
20260505014201 48 41 9.0 17.0 0.00 0.00 0.00 45 1011.8
20260505013521 48 45 9.0 18.0 0.00 0.00 0.00 44 1011.4
20260505012841 49 48 8.0 18.0 0.00 0.00 0.00 43 1011.4
20260505012201 50 40 9.0 18.0 0.00 0.00 0.00 42 1011.0
20260505011521 51 40 8.0 17.0 0.00 0.00 0.00 42 1011.0
20260505010841 51 37 8.0 18.0 0.00 0.00 0.00 43 1011.0
20260505010201 52 35 8.0 17.0 0.00 0.00 0.00 42 1011.0
20260505005521 52 38 6.0 17.0 0.00 0.00 0.00 42 1010.6
20260505004841 52 43 7.0 17.0 0.00 0.00 0.00 42 1010.6
20260505004201 53 18 9.0 18.0 0.00 0.00 0.00 40 1010.6
20260505003521 53 33 7.0 18.0 0.00 0.00 0.00 41 1010.3
20260505002841 53 34 7.0 17.0 0.00 0.00 0.00 41 1010.3
20260505002201 54 29 7.0 16.0 0.00 0.00 0.00 40 1010.3
20260505000201 56 49 5.0 12.0 0.00 0.00 0.00 38 1010.3
20260504235521 56 26 6.0 14.0 0.00 0.00 0.00 36 1010.3
20260504234841 56 39 7.0 14.0 0.00 0.00 0.00 36 1010.3
20260504234201 57 359 8.0 17.0 0.00 0.00 0.00 36 1010.3
20260504233521 56 14 8.0 17.0 0.00 0.00 0.00 37 1010.3
20260504232841 57 33 5.0 18.0 0.00 0.00 0.00 36 1009.9
20260504231521 57 9 6.0 14.0 0.00 0.00 0.00 35 1009.9
20260504230841 57 6 8.0 17.0 0.00 0.00 0.00 35 1009.9
20260504230201 57 338 8.0 18.0 0.00 0.00 0.00 36 1009.9
20260504225521 58 9 9.0 17.0 0.00 0.00 0.00 34 1009.5
20260504224841 60 32 7.0 16.0 0.00 0.00 0.00 33 1009.5
20260504222841 59 10 6.0 14.0 0.00 0.00 0.00 34 1009.5
20260504222201 58 31 7.0 16.0 0.00 0.00 0.00 35 1009.1
20260504221521 58 41 7.0 16.0 0.00 0.00 0.00 34 1009.5
20260504220841 59 1 7.0 14.0 0.00 0.00 0.00 34 1009.1
20260504220201 59 31 7.0 16.0 0.00 0.00 0.00 34 1009.5
20260504215521 59 29 7.0 13.0 0.00 0.00 0.00 33 1009.1
20260504214841 58 356 5.0 16.0 0.00 0.00 0.00 35 1009.5
20260504214201 58 330 9.0 17.0 0.00 0.00 0.00 35 1009.5
20260504213521 58 354 5.0 16.0 0.00 0.00 0.00 35 1009.9
20260504212841 58 46 6.0 15.0 0.00 0.00 0.00 35 1009.9
20260504212201 58 333 8.0 16.0 0.00 0.00 0.00 35 1009.9
20260504211521 57 42 8.0 16.0 0.00 0.00 0.00 36 1009.9
20260504210841 59 25 7.0 13.0 0.00 0.00 0.00 35 1009.9
20260504210201 58 329 4.0 10.0 0.00 0.00 0.00 34 1009.9
20260504205521 58 358 4.0 16.0 0.00 0.00 0.00 34 1009.9
20260504204841 59 356 8.0 16.0 0.00 0.00 0.00 34 1010.3
20260504203521 58 291 4.0 13.0 0.00 0.00 0.00 34 1010.3
20260504202841 58 334 5.0 14.0 0.00 0.00 0.00 34 1010.6
20260504202201 59 48 4.0 14.0 0.00 0.00 0.00 33 1010.6
20260504201521 57 316 7.0 14.0 0.00 0.00 0.00 35 1010.6
20260504200841 57 35 6.0 13.0 0.00 0.00 0.00 35 1010.6
20260504195521 57 64 6.0 15.0 0.00 0.00 0.00 36 1010.6
20260504194202 57 43 6.0 14.0 0.00 0.00 0.00 35 1011.0
20260504192841 56 41 6.0 16.0 0.00 0.00 0.00 35 1011.0
20260504190841 56 34 8.0 12.0 0.00 0.00 0.00 34 1011.0
20260504190201 56 77 8.0 12.0 0.00 0.00 0.00 35 1011.0
20260504185521 56 125 5.0 12.0 0.00 0.00 0.00 35 1011.0
20260504184841 55 85 6.0 15.0 0.00 0.00 0.00 36 1011.8
20260504184201 56 14 7.0 15.0 0.00 0.00 0.00 35 1011.4
20260504183521 56 352 3.0 13.0 0.00 0.00 0.00 36 1011.8
20260504182201 55 48 6.0 11.0 0.00 0.00 0.00 36 1011.8
20260504181521 56 32 5.0 12.0 0.00 0.00 0.00 37 1011.8
20260504180841 54 87 7.0 14.0 0.00 0.00 0.00 38 1011.8
20260504180201 54 81 9.0 14.0 0.00 0.00 0.00 39 1011.8
20260504175521 53 65 6.0 13.0 0.00 0.00 0.00 39 1012.2
20260504174841 54 44 6.0 14.0 0.00 0.00 0.00 38 1012.2
20260504174201 53 47 9.0 16.0 0.00 0.00 0.00 39 1012.2
20260504172841 53 102 1.0 14.0 0.00 0.00 0.00 40 1012.2
20260504171521 53 78 8.0 15.0 0.00 0.00 0.00 40 1012.6
20260504170841 53 19 4.0 11.0 0.00 0.00 0.00 40 1012.6
20260504170201 53 33 6.0 11.0 0.00 0.00 0.00 40 1012.6
20260504160201 50 39 7.0 16.0 0.00 0.00 0.00 44 1012.6
20260504150841 50 33 5.0 17.0 0.00 0.00 0.00 47 1012.6
20260504150201 50 2 7.0 19.0 0.00 0.00 0.00 47 1012.6
20260504140201 51 320 11.0 16.0 0.00 0.00 0.00 46 1011.8
20260504130201 42 206 6.0 11.0 0.00 0.00 0.00 61 1009.1
20260504110202 38 35 1.0 2.0 0.00 0.00 0.00 76 1008.3
20260504100200 38 69 0.0 1.0 0.00 0.00 0.00 76 1008.3